| time (UTC) | temp F | wind direction | speed MPH | gust MPH | rain 1hr in | rain 24hr in | rain mn in | humidity % | barometer mb |
| 20260903161619 | 57 | 0 | 0.0 | 3.0 | 0.00 | 0.03 | 0.00 | 70 | 1007.8 |
| 20260903160057 | 54 | 0 | 0.0 | 2.0 | 0.00 | 0.03 | 0.00 | 76 | 1007.8 |
| 20260903154559 | 52 | 53 | 1.0 | 3.0 | 0.00 | 0.03 | 0.00 | 78 | 1007.7 |
| 20260903153101 | 52 | 94 | 0.0 | 2.0 | 0.00 | 0.03 | 0.00 | 78 | 1007.9 |
| 20260903151603 | 51 | 0 | 0.0 | 5.0 | 0.00 | 0.03 | 0.00 | 80 | 1007.8 |
| 20260903150100 | 50 | 31 | 2.0 | 4.0 | 0.00 | 0.03 | 0.00 | 82 | 1008.0 |
| 20260903144558 | 50 | 355 | 2.0 | 4.0 | 0.00 | 0.03 | 0.00 | 82 | 1007.7 |
| 20260903143059 | 49 | 160 | 0.0 | 9.0 | 0.00 | 0.03 | 0.00 | 83 | 1007.8 |
| 20260903141602 | 49 | 206 | 2.0 | 6.0 | 0.00 | 0.03 | 0.00 | 82 | 1007.5 |
| 20260903134557 | 47 | 158 | 0.0 | 4.0 | 0.00 | 0.03 | 0.00 | 84 | 1007.3 |
| 20260903133057 | 46 | 0 | 0.0 | 3.0 | 0.00 | 0.03 | 0.00 | 84 | 1007.3 |
| 20260903131608 | 45 | 137 | 0.0 | 3.0 | 0.00 | 0.03 | 0.00 | 82 | 1006.8 |
| 20260903124628 | 46 | 213 | 1.0 | 4.0 | 0.00 | 0.03 | 0.00 | 82 | 1006.5 |
| 20260903123106 | 45 | 184 | 0.0 | 6.0 | 0.00 | 0.03 | 0.00 | 82 | 1006.4 |
| 20260903121602 | 44 | 0 | 1.0 | 4.0 | 0.00 | 0.03 | 0.00 | 84 | 1006.3 |
| 20260903120106 | 44 | 130 | 4.0 | 7.0 | 0.00 | 0.03 | 0.00 | 85 | 1006.7 |
| 20260903114608 | 43 | 0 | 0.0 | 0.0 | 0.00 | 0.03 | 0.00 | 86 | 1006.5 |
| 20260903113108 | 43 | 0 | 0.0 | 3.0 | 0.00 | 0.03 | 0.00 | 85 | 1006.7 |
| 20260903111601 | 44 | 0 | 0.0 | 3.0 | 0.00 | 0.03 | 0.00 | 85 | 1006.7 |
| 20260903110105 | 45 | 25 | 1.0 | 3.0 | 0.00 | 0.03 | 0.00 | 83 | 1006.8 |
| 20260903104602 | 45 | 0 | 0.0 | 1.0 | 0.00 | 0.03 | 0.00 | 82 | 1006.8 |
| 20260903103104 | 45 | 0 | 0.0 | 0.0 | 0.00 | 0.03 | 0.00 | 83 | 1006.7 |
| 20260903101601 | 45 | 297 | 1.0 | 3.0 | 0.00 | 0.03 | 0.00 | 80 | 1006.7 |
| 20260903100059 | 46 | 0 | 0.0 | 4.0 | 0.00 | 0.03 | 0.00 | 81 | 1006.8 |
| 20260903094557 | 46 | 57 | 2.0 | 5.0 | 0.00 | 0.03 | 0.00 | 80 | 1006.5 |
| 20260903093107 | 47 | 50 | 2.0 | 4.0 | 0.00 | 0.03 | 0.00 | 80 | 1006.3 |
| 20260903091606 | 48 | 133 | 2.0 | 4.0 | 0.00 | 0.03 | 0.00 | 80 | 1006.4 |
| 20260903090059 | 47 | 0 | 0.0 | 0.0 | 0.00 | 0.03 | 0.00 | 80 | 1006.0 |
| 20260903084619 | 48 | 0 | 0.0 | 1.0 | 0.00 | 0.03 | 0.00 | 78 | 1006.1 |
| 20260903083108 | 48 | 133 | 2.0 | 5.0 | 0.00 | 0.03 | 0.00 | 78 | 1006.3 |
| 20260903081605 | 48 | 150 | 1.0 | 5.0 | 0.00 | 0.03 | 0.00 | 78 | 1006.1 |
| 20260903074602 | 49 | 150 | 3.0 | 7.0 | 0.00 | 0.03 | 0.00 | 79 | 1006.1 |
| 20260903073105 | 49 | 144 | 4.0 | 8.0 | 0.00 | 0.03 | 0.00 | 79 | 1006.4 |
| 20260903071602 | 49 | 160 | 4.0 | 7.0 | 0.00 | 0.03 | 0.00 | 79 | 1006.2 |
| 20260903070100 | 50 | 151 | 3.0 | 5.0 | 0.00 | 0.03 | 0.00 | 77 | 1006.2 |
| 20260903064608 | 52 | 149 | 0.0 | 3.0 | 0.00 | 0.03 | 0.00 | 77 | 1005.7 |
| 20260903063105 | 52 | 150 | 0.0 | 0.0 | 0.00 | 0.03 | 0.00 | 75 | 1006.1 |
| 20260903061558 | 53 | 205 | 0.0 | 7.0 | 0.00 | 0.03 | 0.00 | 75 | 1006.2 |
| 20260903060109 | 52 | 167 | 6.0 | 11.0 | 0.00 | 0.03 | 0.00 | 77 | 1006.0 |
| 20260903054607 | 53 | 0 | 0.0 | 4.0 | 0.00 | 0.03 | 0.03 | 74 | 1006.3 |
| 20260903053108 | 53 | 229 | 2.0 | 6.0 | 0.00 | 0.03 | 0.03 | 76 | 1006.1 |
| 20260903051604 | 53 | 139 | 1.0 | 5.0 | 0.00 | 0.03 | 0.03 | 77 | 1006.4 |
| 20260903050100 | 52 | 211 | 4.0 | 8.0 | 0.00 | 0.03 | 0.03 | 79 | 1006.8 |
| 20260903044600 | 52 | 215 | 3.0 | 8.0 | 0.00 | 0.03 | 0.03 | 78 | 1007.0 |
| 20260903043100 | 53 | 201 | 4.0 | 8.0 | 0.00 | 0.03 | 0.03 | 77 | 1007.0 |
| 20260903041601 | 53 | 194 | 4.0 | 8.0 | 0.00 | 0.03 | 0.03 | 74 | 1007.0 |
| 20260903040100 | 54 | 192 | 5.0 | 9.0 | 0.00 | 0.03 | 0.03 | 72 | 1006.9 |
| 20260903034602 | 54 | 202 | 3.0 | 7.0 | 0.00 | 0.03 | 0.03 | 71 | 1006.8 |
| 20260903033100 | 56 | 199 | 5.0 | 11.0 | 0.00 | 0.03 | 0.03 | 68 | 1006.9 |
| 20260903031558 | 55 | 229 | 5.0 | 8.0 | 0.00 | 0.03 | 0.03 | 71 | 1006.5 |
| 20260903030058 | 56 | 213 | 5.0 | 10.0 | 0.00 | 0.03 | 0.03 | 69 | 1006.7 |
| 20260903024558 | 56 | 236 | 5.0 | 14.0 | 0.00 | 0.03 | 0.03 | 70 | 1006.3 |
| 20260903023104 | 57 | 290 | 10.0 | 16.0 | 0.00 | 0.03 | 0.03 | 71 | 1006.1 |
| 20260903021603 | 57 | 258 | 10.0 | 18.0 | 0.00 | 0.03 | 0.03 | 69 | 1006.4 |
| 20260903020105 | 58 | 243 | 9.0 | 15.0 | 0.00 | 0.03 | 0.03 | 69 | 1006.7 |
| 20260903014611 | 60 | 242 | 9.0 | 14.0 | 0.00 | 0.03 | 0.03 | 70 | 1006.1 |
| 20260903013058 | 61 | 184 | 2.0 | 7.0 | 0.00 | 0.03 | 0.03 | 76 | 1006.4 |
| 20260903011613 | 60 | 133 | 4.0 | 8.0 | 0.01 | 0.03 | 0.03 | 75 | 1006.3 |
| 20260903010106 | 60 | 133 | 3.0 | 5.0 | 0.01 | 0.03 | 0.03 | 73 | 1006.4 |
| 20260903004600 | 60 | 0 | 0.0 | 6.0 | 0.01 | 0.03 | 0.03 | 71 | 1005.7 |
| 20260903003101 | 60 | 352 | 3.0 | 12.0 | 0.01 | 0.03 | 0.03 | 71 | 1005.5 |
| 20260903001607 | 61 | 59 | 3.0 | 9.0 | 0.00 | 0.02 | 0.02 | 69 | 1005.9 |
| 20260902233100 | 61 | 229 | 12.0 | 22.0 | 0.02 | 0.02 | 0.02 | 63 | 1007.3 |
| 20260902231600 | 60 | 213 | 18.0 | 30.0 | 0.02 | 0.02 | 0.02 | 67 | 1006.6 |
| 20260902230108 | 60 | 217 | 19.0 | 34.0 | 0.01 | 0.01 | 0.01 | 67 | 1006.1 |
| 20260902224629 | 66 | 217 | 25.0 | 65.0 | 0.00 | 0.00 | 0.00 | 51 | 1005.1 |
| 20260902223118 | 79 | 139 | 8.0 | 21.0 | 0.00 | 0.00 | 0.00 | 29 | 1002.1 |
| 20260902221611 | 81 | 228 | 13.0 | 30.0 | 0.00 | 0.00 | 0.00 | 22 | 1002.5 |
| 20260902220111 | 82 | 155 | 3.0 | 7.0 | 0.00 | 0.00 | 0.00 | 29 | 1002.2 |
| 20260902214611 | 84 | 218 | 6.0 | 18.0 | 0.00 | 0.00 | 0.00 | 27 | 1002.5 |
| 20260902213110 | 84 | 143 | 8.0 | 16.0 | 0.00 | 0.00 | 0.00 | 27 | 1002.5 |
| 20260902211604 | 83 | 147 | 5.0 | 15.0 | 0.00 | 0.00 | 0.00 | 29 | 1002.7 |
| 20260902204602 | 83 | 129 | 6.0 | 14.0 | 0.00 | 0.00 | 0.00 | 29 | 1003.6 |
| 20260902203058 | 82 | 192 | 3.0 | 11.0 | 0.00 | 0.00 | 0.00 | 31 | 1003.9 |
| 20260902201601 | 79 | 147 | 5.0 | 11.0 | 0.00 | 0.00 | 0.00 | 33 | 1004.2 |
| 20260902200056 | 80 | 175 | 2.0 | 15.0 | 0.00 | 0.00 | 0.00 | 32 | 1004.4 |
| 20260902194606 | 80 | 139 | 7.0 | 16.0 | 0.00 | 0.00 | 0.00 | 33 | 1004.4 |
| 20260902193123 | 78 | 157 | 3.0 | 12.0 | 0.00 | 0.00 | 0.00 | 35 | 1004.6 |
| 20260902191601 | 77 | 121 | 8.0 | 13.0 | 0.00 | 0.00 | 0.00 | 35 | 1004.6 |
| 20260902190103 | 78 | 157 | 3.0 | 12.0 | 0.00 | 0.00 | 0.00 | 35 | 1005.0 |
| 20260902184619 | 77 | 126 | 3.0 | 13.0 | 0.00 | 0.00 | 0.00 | 37 | 1005.1 |
| 20260902183121 | 77 | 184 | 5.0 | 12.0 | 0.00 | 0.00 | 0.00 | 39 | 1005.3 |
| 20260902181601 | 75 | 174 | 3.0 | 11.0 | 0.00 | 0.00 | 0.00 | 41 | 1005.5 |
| 20260902180059 | 75 | 199 | 3.0 | 10.0 | 0.00 | 0.00 | 0.00 | 41 | 1005.7 |
| 20260902174556 | 75 | 157 | 5.0 | 14.0 | 0.00 | 0.00 | 0.00 | 41 | 1005.9 |
| 20260902173058 | 74 | 214 | 5.0 | 14.0 | 0.00 | 0.00 | 0.00 | 42 | 1006.1 |
| 20260902171602 | 73 | 140 | 6.0 | 13.0 | 0.00 | 0.00 | 0.00 | 45 | 1006.2 |
| 20260902170103 | 71 | 185 | 4.0 | 10.0 | 0.00 | 0.00 | 0.00 | 47 | 1006.0 |
| 20260902164601 | 70 | 190 | 2.0 | 10.0 | 0.00 | 0.00 | 0.00 | 48 | 1006.0 |
| 20260902163101 | 70 | 177 | 5.0 | 12.0 | 0.00 | 0.00 | 0.00 | 47 | 1006.0 |